When you browse on this site, cookies collect data to enhance your experience and personalize the content and advertising you see.
Visit our Privacy Policy to learn more. By continuing to use the site, you agree to this use of cookies and data.
  • In Belgium
  • List of Countries
  • For 7 days
  • Water Temperature
  • Satellite Maps
  • Weather Map
  • Weather Widgets
  • user-avatar
    Login

    Hourly Weather Amanzimtoti

    Today, 17 December, Monday

    Time Temperature Precipitation Wind Pressure Humidity
    00:00 +26°C° 0 mm 6 mps 757 mmHg 95%
    01:00 +24°C° 0 mm 6 mps 756 mmHg 96%
    02:00 +24°C° 0 mm 6 mps 756 mmHg 96%
    03:00 +24°C° 0 mm 6 mps 756 mmHg 96%
    04:00 +24°C° 0 mm 6 mps 755 mmHg 95%
    05:00 +23°C° 0 mm 6 mps 755 mmHg 95%
    06:00 +27°C° 0 mm 6 mps 755 mmHg 84%
    07:00 +30°C° 0 mm 6 mps 755 mmHg 72%
    08:00 +34°C° 0 mm 5 mps 754 mmHg 61%
    09:00 +36°C° 0 mm 6 mps 754 mmHg 53%
    10:00 +40°C° 0 mm 6 mps 754 mmHg 45%
    11:00 +42°C° 0 mm 6 mps 753 mmHg 37%
    12:00 +42°C° 0 mm 6 mps 753 mmHg 40%
    13:00 +42°C° 0 mm 6 mps 752 mmHg 43%
    14:00 +41°C° 0 mm 6 mps 752 mmHg 46%
    15:00 +38°C° 0.3 mm 6 mps 752 mmHg 51%
    16:00 +34°C° 0.3 mm 6 mps 752 mmHg 57%
    17:00 +30°C° 0.3 mm 6 mps 752 mmHg 62%
    18:00 +30°C° 0.1 mm 6 mps 753 mmHg 62%
    19:00 +29°C° 0.1 mm 6 mps 753 mmHg 62%
    20:00 +28°C° 0.1 mm 6 mps 753 mmHg 62%
    21:00 +28°C° 0 mm 6 mps 753 mmHg 63%
    22:00 +28°C° 0 mm 6 mps 753 mmHg 63%
    23:00 +28°C° 0 mm 6 mps 753 mmHg 63%

    Tomorrow, 18 December, Tuesday

    Time Temperature Precipitation Wind Pressure Humidity
    00:00 +27°C° 0 mm 6 mps 753 mmHg 64%
    01:00 +27°C° 0 mm 5 mps 752 mmHg 64%
    02:00 +26°C° 0 mm 5 mps 752 mmHg 65%
    03:00 +26°C° 0 mm 5 mps 752 mmHg 62%
    04:00 +26°C° 0 mm 5 mps 752 mmHg 60%
    05:00 +27°C° 0 mm 4 mps 751 mmHg 57%
    06:00 +29°C° 0 mm 4 mps 752 mmHg 54%
    07:00 +32°C° 0 mm 4 mps 752 mmHg 50%
    08:00 +34°C° 0 mm 4 mps 752 mmHg 47%
    09:00 +36°C° 0 mm 5 mps 752 mmHg 45%
    10:00 +39°C° 0 mm 5 mps 752 mmHg 43%
    11:00 +40°C° 0 mm 6 mps 752 mmHg 42%
    12:00 +39°C° 0 mm 5 mps 751 mmHg 49%
    13:00 +37°C° 0 mm 5 mps 751 mmHg 56%
    14:00 +35°C° 0 mm 4 mps 751 mmHg 63%
    15:00 +35°C° 0.1 mm 4 mps 751 mmHg 65%
    16:00 +34°C° 0.1 mm 3 mps 750 mmHg 67%
    17:00 +33°C° 0.1 mm 3 mps 750 mmHg 69%
    18:00 +31°C° 0.5 mm 3 mps 751 mmHg 75%
    19:00 +29°C° 0.5 mm 4 mps 751 mmHg 81%
    20:00 +27°C° 0.5 mm 5 mps 752 mmHg 87%
    21:00 +27°C° 0 mm 4 mps 752 mmHg 87%
    22:00 +27°C° 0 mm 3 mps 752 mmHg 87%
    23:00 +26°C° 0 mm 3 mps 752 mmHg 87%

    Day after tomorrow, 19 December, Wednesday

    Time Temperature Precipitation Wind Pressure Humidity
    00:00 +26°C° 0 mm 3 mps 752 mmHg 87%
    01:00 +25°C° 0 mm 3 mps 751 mmHg 87%
    02:00 +25°C° 0 mm 4 mps 751 mmHg 88%
    03:00 +25°C° 0 mm 4 mps 751 mmHg 90%
    04:00 +23°C° 0 mm 5 mps 752 mmHg 92%
    05:00 +23°C° 0 mm 5 mps 752 mmHg 93%
    06:00 +26°C° 0 mm 5 mps 752 mmHg 86%
    07:00 +28°C° 0 mm 5 mps 752 mmHg 78%
    08:00 +30°C° 0 mm 5 mps 752 mmHg 70%
    09:00 +30°C° 0 mm 5 mps 752 mmHg 67%
    10:00 +32°C° 0 mm 5 mps 752 mmHg 64%
    11:00 +33°C° 0 mm 5 mps 752 mmHg 60%
    12:00 +32°C° 0 mm 6 mps 752 mmHg 63%
    13:00 +32°C° 0 mm 6 mps 752 mmHg 65%
    14:00 +30°C° 0 mm 6 mps 751 mmHg 68%
    15:00 +28°C° 0.7 mm 6 mps 752 mmHg 76%
    16:00 +27°C° 0.7 mm 6 mps 752 mmHg 84%
    17:00 +25°C° 0.7 mm 5 mps 752 mmHg 93%
    18:00 +23°C° 1.2 mm 5 mps 753 mmHg 93%
    19:00 +23°C° 1.2 mm 5 mps 754 mmHg 94%
    20:00 +23°C° 1.2 mm 5 mps 755 mmHg 95%
    21:00 +22°C° 0.3 mm 5 mps 755 mmHg 94%
    22:00 +22°C° 0.3 mm 5 mps 756 mmHg 94%
    23:00 +22°C° 0.3 mm 5 mps 757 mmHg 94%

    20 December, Thursday

    Time Temperature Precipitation Wind Pressure Humidity
    00:00 +22°C° 0 mm 5 mps 757 mmHg 93%
    01:00 +22°C° 0 mm 4 mps 757 mmHg 93%
    02:00 +22°C° 0 mm 4 mps 756 mmHg 93%
    03:00 +21°C° 0.1 mm 4 mps 757 mmHg 93%
    04:00 +21°C° 0.1 mm 4 mps 757 mmHg 92%
    05:00 +21°C° 0.1 mm 4 mps 757 mmHg 92%
    06:00 +22°C° 0.1 mm 4 mps 757 mmHg 89%
    07:00 +23°C° 0.1 mm 4 mps 758 mmHg 85%
    08:00 +23°C° 0.1 mm 4 mps 758 mmHg 81%
    09:00 +25°C° 0.1 mm 4 mps 758 mmHg 78%
    10:00 +25°C° 0.1 mm 4 mps 758 mmHg 76%
    11:00 +26°C° 0.1 mm 4 mps 758 mmHg 73%
    12:00 +25°C° 0.1 mm 4 mps 758 mmHg 77%
    13:00 +25°C° 0.1 mm 4 mps 758 mmHg 80%
    14:00 +23°C° 0.1 mm 4 mps 757 mmHg 84%
    15:00 +23°C° 0.1 mm 4 mps 758 mmHg 87%
    16:00 +22°C° 0.1 mm 4 mps 758 mmHg 89%
    17:00 +22°C° 0.1 mm 3 mps 758 mmHg 92%
    18:00 +22°C° 0.1 mm 3 mps 758 mmHg 93%
    19:00 +21°C° 0.1 mm 3 mps 759 mmHg 93%
    20:00 +21°C° 0.1 mm 3 mps 759 mmHg 94%
    21:00 +21°C° 0.3 mm 3 mps 760 mmHg 94%
    22:00 +21°C° 0.3 mm 3 mps 760 mmHg 95%
    23:00 +21°C° 0.3 mm 3 mps 760 mmHg 95%

    21 December, Friday

    Time Temperature Precipitation Wind Pressure Humidity
    00:00 +21°C° 0.4 mm 3 mps 760 mmHg 95%
    01:00 +21°C° 0.4 mm 3 mps 759 mmHg 95%
    02:00 +21°C° 0.4 mm 3 mps 759 mmHg 96%
    03:00 +21°C° 0 mm 3 mps 758 mmHg 95%
    04:00 +21°C° 0 mm 3 mps 758 mmHg 95%
    05:00 +21°C° 0 mm 3 mps 758 mmHg 95%
    06:00 +21°C° 0.1 mm 3 mps 758 mmHg 94%
    07:00 +22°C° 0.1 mm 4 mps 759 mmHg 93%
    08:00 +22°C° 0.1 mm 4 mps 759 mmHg 93%
    09:00 +23°C° 0.1 mm 5 mps 758 mmHg 89%
    10:00 +25°C° 0.1 mm 5 mps 758 mmHg 86%
    11:00 +24°C° 0.1 mm 6 mps 757 mmHg 83%
    12:00 +26°C° 0 mm 6 mps 757 mmHg 81%
    13:00 +26°C° 0 mm 6 mps 756 mmHg 79%
    14:00 +27°C° 0 mm 7 mps 755 mmHg 78%
    15:00 +26°C° 0.1 mm 7 mps 755 mmHg 82%
    16:00 +24°C° 0.1 mm 7 mps 755 mmHg 85%
    17:00 +24°C° 0.1 mm 7 mps 755 mmHg 89%
    18:00 +23°C° 0.3 mm 6 mps 755 mmHg 91%
    19:00 +23°C° 0.3 mm 6 mps 756 mmHg 94%
    20:00 +23°C° 0.3 mm 6 mps 756 mmHg 96%
    21:00 +23°C° 0.3 mm 6 mps 756 mmHg 96%
    22:00 +22°C° 0.3 mm 7 mps 756 mmHg 96%
    23:00 +22°C° 0.3 mm 7 mps 756 mmHg 96%

    22 December, Saturday

    Time Temperature Precipitation Wind Pressure Humidity
    00:00 +22°C° 0.1 mm 7 mps 756 mmHg 96%
    01:00 +22°C° 0.1 mm 7 mps 755 mmHg 97%
    02:00 +22°C° 0.1 mm 6 mps 755 mmHg 97%
    03:00 +22°C° 0.1 mm 6 mps 754 mmHg 97%
    04:00 +22°C° 0.1 mm 6 mps 754 mmHg 97%
    05:00 +22°C° 0.1 mm 6 mps 754 mmHg 96%
    06:00 +23°C° 0 mm 6 mps 754 mmHg 92%
    07:00 +24°C° 0 mm 6 mps 754 mmHg 89%
    08:00 +26°C° 0 mm 6 mps 754 mmHg 85%
    09:00 +28°C° 0.1 mm 6 mps 753 mmHg 79%
    10:00 +29°C° 0.1 mm 6 mps 753 mmHg 74%
    11:00 +30°C° 0.1 mm 6 mps 752 mmHg 69%
    12:00 +30°C° 0.1 mm 6 mps 752 mmHg 71%
    13:00 +30°C° 0.1 mm 7 mps 751 mmHg 74%
    14:00 +29°C° 0.1 mm 7 mps 751 mmHg 76%
    15:00 +28°C° 1.7 mm 7 mps 751 mmHg 83%
    16:00 +27°C° 1.7 mm 7 mps 751 mmHg 89%
    17:00 +26°C° 1.7 mm 7 mps 751 mmHg 96%
    18:00 +24°C° 0.3 mm 7 mps 752 mmHg 96%
    19:00 +24°C° 0.3 mm 7 mps 753 mmHg 96%
    20:00 +24°C° 0.3 mm 7 mps 753 mmHg 97%
    21:00 +24°C° 0.4 mm 6 mps 754 mmHg 97%
    22:00 +24°C° 0.4 mm 6 mps 754 mmHg 97%
    23:00 +24°C° 0.4 mm 6 mps 754 mmHg 97%
    Show more